"Pseudo-MPEC" for C4LXKN2

Created 2021 Jan 14 17:07:12 UT using Find_Orb

Click here for an explanation of pseudo-MPECs

 
 Astrometry: 
     C4LXKN2 HC2021 01 13.37081609 44 30.01 -10 18 41.7    ~1D9q 20.18GVNEOCPG96
     C4LXKN2 HC2021 01 13.37598209 44 18.90 -10 16 40.5    ~1D9q 20.20GVNEOCPG96
     C4LXKN2 HC2021 01 13.38114309 44 07.88 -10 14 39.7    ~1D9q 20.60GVNEOCPG96
     C4LXKN2 KC2021 01 13.48611909 40 20.93 -09 32 54.2    ~1DC7 19.34GVNEOCPI52
     C4LXKN2 KC2021 01 13.48725509 40 18.48 -09 32 26.7    ~1DC7 19.57GVNEOCPI52
     C4LXKN2 KC2021 01 13.48953609 40 13.57 -09 31 31.3    ~1DC7 18.85GVNEOCPI52
     C4LXKN2 KC2021 01 14.29473109 11 55.18 -03 39 02.7    ~1E7b 18.64GVNEOCPI52
     C4LXKN2 KC2021 01 14.29606709 11 51.93 -03 38 25.0    ~1E7b 18.95GVNEOCPI52
     C4LXKN2 KC2021 01 14.29738809 11 48.71 -03 37 47.9    ~1E7b 18.77GVNEOCPI52
     C4LXKN2 KC2021 01 14.29871409 11 45.48 -03 37 10.5    ~1E7b 18.81GVNEOCPI52
     C4LXKN2 KC2021 01 14`Y\1ZT1(D*Q#OGF'V6Astrometry/'9FUdkK3redacted;i(taa0474
     C4LXKN2 KC2021 01 14ru)W=g.t/@xe0amI-#qG)+6click1YwLiI!-RXJs@x6OhoNOR]U.474
     C4LXKN2 KC2021 01 14e^9UIL,O;UP#-b'Zhere(p2x8'MhC%%;4for3ZM'5vSAIPVL]?-q474
     C4LXKN2 KC2021 01 14!gB3fZn9H7rM,explanation,;f3BUduPjDFJ=?X5uEW.17#$`nv474

Station data:
(474) Mount John Observatory, Lake Tekapo  (S43.987388 E170.464960)  New
   Zealand.  Observers A. C. Gilmore, P. M. Kilmartin. Measurer P. M.
   Kilmartin. 1.0-m f/7.7 reflector + CCD.
(G96) Mt. Lemmon Survey  (N32.442754 W110.788720)  US/Arizona.  Observers T.
   A. Pruyne, B. M. Africano, E. J. Christensen, G. A. Farneth, D. C. Fuls,
   A. R. Gibbs, A. D. Grauer, H. Gröller, J. A. Johnson, R. A. Kowalski, S.
   M. Larson, G. J. Leonard, D. Rankin, R. L. Seaman, F. C. Shelly. 1.5-m
   reflector + 10K CCD.
(I52) Steward Observatory, Mt. Lemmon Station  (N32.442547 W110.788920)
   US/Arizona.  Observers T. A. Pruyne, B. M. Africano, E. J. Christensen, G.
   A. Farneth, D. C. Fuls, A. R. Gibbs, A. D. Grauer, H. Gröller, J. A.
   Johnson, R. A. Kowalski, S. M. Larson, G. J. Leonard, D. Rankin, R. L.
   Seaman, F. C. Shelly. 1.0-m reflector + CCD.

Orbital elements:  C4LXKN2
   Perihelion 2020 Sep 27.592721 +/- 0.0329639 TT = 14:13:31 (JD 2459120.092721)
Epoch 2021 Jan 14.0 TT = JDT 2459228.5   Earth MOID: 0.0154   Ve: 0.0529
M 162.72828344 +/- 0.0077907        Me: 0.0845                AutoNEOCP
n   1.50108262 +/- 0.000472697      Peri.  186.34900 +/- 0.0064106
a   0.75543943 +/- 0.000158591      Node   117.13996 +/- 0.0007589
e   0.3296199 +/- 0.000296714       Incl.    7.03441 +/- 0.0090751
P   0.66/239.82d           H 26.9   G  0.15   U  7.6  
q 0.50643153 +/- 0.000330526    Q 1.00444733 +/- 1.48721e-5
From 14 observations 2021 Jan. 13-14 (30.1 hr); mean residual 0".18
Residuals in arcseconds: 
210113 G96  .03-  .27-    210113 I52  .22+  .17-    210114 474  .15-  .08+    
210113 G96  .46-  .24+    210114 I52  .09+  .12+    210114 474  .18+  .12-    
210113 G96  .49+  .23+    210114 I52  .04+  .11+    210114 474  .09-  .09+    
210113 I52  .13-  .02-    210114 I52  .09-  .08-    210114 474  .13+  .04-    
210113 I52  .05-  .12-    210114 I52  .16-  .12-    

Ephemerides (geocentric):
Date (UTC) HH   RA              Dec         delta   r     elong  mag " sig PA
---- -- -- --  -------------   -----------  ------ ------ -----  --- ---- ---
2021 01 14 17  08 55 38.121   -00 13 15.49  .01707 0.9988 152.6 19.2 .446 150
2021 01 14 18  08 53 58.486   +00 07 34.70  .01703 0.9989 153.1 19.2 .542 148
2021 01 14 19  08 52 18.407   +00 28 30.48  .01700 0.9989 153.7 19.2 .642 147
2021 01 14 20  08 50 37.889   +00 49 31.58  .01696 0.9989 154.2 19.2 .749 146
2021 01 14 21  08 48 56.942   +01 10 37.73  .01693 0.9990 154.8 19.1 .861 144
2021 01 14 22  08 47 15.575   +01 31 48.67  .01690 0.9990 155.4 19.1 .978 144
2021 01 14 23  08 45 33.795   +01 53 04.10  .01687 0.9991 155.9 19.1 1.10 143
2021 01 15 00  08 43 51.613   +02 14 23.74  .01684 0.9991 156.5 19.1 1.23 142
2021 01 15 01  08 42 09.037   +02 35 47.29  .01681 0.9992 157.1 19.1 1.36 142
2021 01 15 02  08 40 26.076   +02 57 14.45  .01679 0.9992 157.7 19.0 1.50 141
2021 01 15 03  08 38 42.742   +03 18 44.92  .01676 0.9992 158.2 19.0 1.65 141
2021 01 15 04  08 36 59.042   +03 40 18.38  .01674 0.9993 158.8 19.0 1.80 140
2021 01 15 05  08 35 14.989   +04 01 54.51  .01672 0.9993 159.4 19.0 1.95 140
2021 01 15 06  08 33 30.592   +04 23 33.00  .01670 0.9994 159.9 19.0 2.11 139
2021 01 15 07  08 31 45.863   +04 45 13.51  .01668 0.9994 160.5 18.9 2.28 139
2021 01 15 08  08 30 00.811   +05 06 55.72  .01667 0.9994 161.1 18.9 2.45 139
2021 01 15 09  08 28 15.449   +05 28 39.29  .01665 0.9995 161.6 18.9 2.62 138
2021 01 15 10  08 26 29.787   +05 50 23.88  .01664 0.9995 162.2 18.9 2.80 138
2021 01 15 11  08 24 43.837   +06 12 09.15  .01663 0.9996 162.8 18.9 2.98 138
2021 01 15 12  08 22 57.612   +06 33 54.76  .01662 0.9996 163.3 18.8 3.17 137
2021 01 15 13  08 21 11.122   +06 55 40.37  .01661 0.9996 163.9 18.8 3.37 137
2021 01 15 14  08 19 24.381   +07 17 25.63  .01661 0.9997 164.4 18.8 3.57 137
2021 01 15 15  08 17 37.400   +07 39 10.20  .01660 0.9997 165.0 18.8 3.77 137
2021 01 15 16  08 15 50.192   +08 00 53.72  .01660 0.9998 165.5 18.8 3.97 137
2021 01 15 17  08 14 02.770   +08 22 35.85  .01660 0.9998 166.1 18.7 4.19 136
2021 01 15 18  08 12 15.147   +08 44 16.24  .01660 0.9998 166.6 18.7 4.40 136
2021 01 15 19  08 10 27.335   +09 05 54.55  .01660 0.9999 167.1 18.7 4.62 136
2021 01 15 20  08 08 39.349   +09 27 30.43  .01661 0.9999 167.6 18.7 4.84 136
2021 01 15 21  08 06 51.200   +09 49 03.54  .01661 1.0000 168.1 18.7 5.07 135
2021 01 15 22  08 05 02.903   +10 10 33.54  .01662 1.0000 168.6 18.7 5.30 135
2021 01 15 23  08 03 14.471   +10 32 00.09  .01663 1.0000 169.1 18.6 5.53 135
2021 01 16 00  08 01 25.918   +10 53 22.86  .01664 1.0001 169.6 18.6 5.77 135
2021 01 16 01  07 59 37.257   +11 14 41.51  .01665 1.0001 170.1 18.6 6.00 135
2021 01 16 02  07 57 48.502   +11 35 55.72  .01667 1.0002 170.5 18.6 6.25 134
2021 01 16 03  07 55 59.667   +11 57 05.17  .01668 1.0002 170.9 18.6 6.49 134
2021 01 16 04  07 54 10.766   +12 18 09.53  .01670 1.0002 171.3 18.6 6.74 134
2021 01 16 05  07 52 21.813   +12 39 08.51  .01672 1.0003 171.7 18.5 6.99 134
2021 01 16 06  07 50 32.823   +13 00 01.78  .01674 1.0003 172.1 18.5 7.24 134
2021 01 16 07  07 48 43.808   +13 20 49.05  .01676 1.0003 172.4 18.5 7.49 133
2021 01 16 08  07 46 54.783   +13 41 30.02  .01678 1.0004 172.6 18.5 7.74 133
2021 01 16 09  07 45 05.762   +14 02 04.42  .01681 1.0004 172.9 18.5 8.00 133
2021 01 16 10  07 43 16.760   +14 22 31.94  .01684 1.0004 173.1 18.5 8.26 133
2021 01 16 11  07 41 27.790   +14 42 52.34  .01687 1.0005 173.2 18.5 8.52 133
2021 01 16 12  07 39 38.867   +15 03 05.32  .01690 1.0005 173.3 18.5 8.78 133
2021 01 16 13  07 37 50.004   +15 23 10.65  .01693 1.0006 173.4 18.5 9.04 132
2021 01 16 14  07 36 01.215   +15 43 08.07  .01696 1.0006 173.4 18.5 9.30 132
2021 01 16 15  07 34 12.514   +16 02 57.33  .01700 1.0006 173.3 18.5 9.57 132
2021 01 16 16  07 32 23.916   +16 22 38.20  .01703 1.0007 173.2 18.5 9.83 132